Location: Treviso
(45.6669°N, 12.2430°E)
Time: 08:03:13
(UTC+02:00)

ISS - Pass Details

Date: 17 March 2018
Orbit: 402 x 407 km, 51.6° (Epoch: 25 June)

Event Time Altitude Azimuth Distance (km) Brightness Sun altitude
Exits shadow 03:02:42 - 75° (ENE) 1,706 0.1 -33.1°
Enters shadow 04:03:02 -60° 288° (WNW) 11,548 3.5 -24.2°
Maximum altitude 04:36:02 77° 27° (NNE) 426 -3.8 -18.8°
